Change the Weather History Date:

Saturday, October 5, 2013

  Actual Average Record
Temperature  
Mean Temperature 63 °F -  
Max Temperature 66 °F 70 °F 80 °F (2007)
Min Temperature 60 °F 52 °F 44 °F (2008)
Degree Days  
Heating Degree Days 2    
Growing Degree Days 13 (Base 50)    
Moisture  
Dew Point 57 °F    
Average Humidity 79    
Maximum Humidity 94    
Minimum Humidity 60    
Precipitation  
Precipitation 0.00 in 0.18 in - ()
Sea Level Pressure  
Sea Level Pressure 30.17 in    
Wind  
Wind Speed 5 mph ()    
Max Wind Speed 14 mph    
Max Gust Speed -    
Visibility 5.3 miles    
Events Rain , Thunderstorm    
Averages and records for this station are not official NWS values.
T = Trace of Precipitation, MM = Missing Value Source: Averaged Metar Reports

Daily Weather History Graph

Daily Weather History Graph

Search for Another Location

Airport or City:

Trip Planner

Search our weather history database for the weather conditions in past years. The results will help you decide how hot, cold, wet, or windy it might be!

Date:

Astronomy

Oct. 05, 2013 Rise Set
Actual Time 7:03 AM CEST 6:38 PM CEST
Civil Twilight 6:36 AM CEST 7:05 PM CEST
Nautical Twilight 6:04 AM CEST 7:37 PM CEST
Astronomical Twilight 5:32 AM CEST 8:09 PM CEST
Moon 7:24 AM CEST (10/5) 6:45 PM CEST (10/5)
Length of Visible Light 12h 29m
Length of Day
11h 34m
New Moon, 0% of the Moon is Illuminated
Oct 5
New Moon
Oct 12
First Quarter
Oct 19
Full
Oct 27
Last Quarter
Nov 3
New

Hourly Weather History & Observations

Time (CEST) Temp. Dew Point Humidity Pressure Visibility Wind Dir Wind Speed Gust Speed Precip Events Conditions
12:20 AM 66.2 °F 51.8 °F 60% 30.24 in 6.2 mi North 4.6 mph - N/A   Mostly Cloudy
12:50 AM 66.2 °F 51.8 °F 60% 30.21 in 6.2 mi NNE 5.8 mph - N/A   Mostly Cloudy
1:20 AM 66.2 °F 51.8 °F 60% 30.21 in 6.2 mi North 5.8 mph - N/A   Mostly Cloudy
1:50 AM 66.2 °F 51.8 °F 60% 30.21 in 6.2 mi NNW 4.6 mph - N/A   Mostly Cloudy
2:20 AM 66.2 °F 51.8 °F 60% 30.21 in 6.2 mi NNW 3.5 mph - N/A   Mostly Cloudy
2:50 AM 66.2 °F 51.8 °F 60% 30.21 in 6.2 mi NNW 3.5 mph - N/A   Mostly Cloudy
3:20 AM 66.2 °F 51.8 °F 60% 30.21 in 6.2 mi NNW 3.5 mph - N/A   Mostly Cloudy
4:20 AM 66.2 °F 51.8 °F 60% 30.21 in 6.2 mi NW 4.6 mph - N/A   Mostly Cloudy
4:50 AM 66.2 °F 51.8 °F 60% 30.21 in 6.2 mi WNW 3.5 mph - N/A   Mostly Cloudy
5:50 AM 62.6 °F 53.6 °F 72% 30.21 in 6.2 mi ENE 5.8 mph - N/A   Mostly Cloudy
6:20 AM 62.6 °F 53.6 °F 72% 30.18 in 6.2 mi ENE 5.8 mph - N/A   Mostly Cloudy
6:50 AM 62.6 °F 53.6 °F 72% 30.18 in 6.2 mi NNE 5.8 mph - N/A   Mostly Cloudy
7:20 AM 62.6 °F 55.4 °F 77% 30.18 in 6.2 mi NNE 8.1 mph - N/A   Mostly Cloudy
7:50 AM 64.4 °F 55.4 °F 73% 30.18 in 6.2 mi NE 8.1 mph - N/A   Mostly Cloudy
8:20 AM 64.4 °F 55.4 °F 73% 30.18 in 6.2 mi North 5.8 mph - N/A   Mostly Cloudy
8:50 AM 66.2 °F 53.6 °F 64% 30.15 in 6.2 mi NNE 4.6 mph - N/A   Mostly Cloudy
9:20 AM 66.2 °F 55.4 °F 68% 30.18 in 6.2 mi North 6.9 mph - N/A   Mostly Cloudy
9:50 AM 64.4 °F 55.4 °F 73% 30.18 in 6.2 mi NNE 5.8 mph - N/A   Mostly Cloudy
10:20 AM 64.4 °F 53.6 °F 68% 30.21 in 6.2 mi NNW 4.6 mph - N/A Rain Light Rain
10:50 AM 62.6 °F 57.2 °F 82% 30.21 in 5.0 mi North 6.9 mph - N/A Rain Rain
11:20 AM 60.8 °F 57.2 °F 88% 30.24 in 3.7 mi North 13.8 mph - N/A Rain Rain
11:50 AM 60.8 °F 57.2 °F 88% 30.24 in 1.9 mi Variable 2.3 mph - N/A Rain , Thunderstorm Thunderstorms and Rain
12:20 PM 60.8 °F 57.2 °F 88% 30.24 in 3.1 mi South 8.1 mph - N/A Rain , Thunderstorm Thunderstorms and Rain
12:50 PM 60.8 °F 59.0 °F 94% 30.21 in 2.5 mi Variable 2.3 mph - N/A Rain Rain
1:20 PM 60.8 °F 59.0 °F 94% 30.21 in 1.9 mi ENE 3.5 mph - N/A Rain Rain
1:50 PM 60.8 °F 59.0 °F 94% 30.21 in 1.9 mi Variable 2.3 mph - N/A Rain Rain
2:20 PM 60.8 °F 59.0 °F 94% 30.15 in 1.9 mi Variable 2.3 mph - N/A Rain Rain
2:50 PM 60.8 °F 59.0 °F 94% 30.15 in 3.7 mi NNE 4.6 mph - N/A Rain Light Rain
3:20 PM 62.6 °F 59.0 °F 88% 30.12 in 3.7 mi NE 5.8 mph - N/A Rain Light Rain
3:50 PM 62.6 °F 60.8 °F 94% 30.12 in 3.7 mi NNE 6.9 mph - N/A   Light Drizzle
4:20 PM 64.4 °F 60.8 °F 88% 30.09 in 5.0 mi SSE 4.6 mph - N/A   Overcast
4:50 PM 64.4 °F 60.8 °F 88% 30.09 in 5.0 mi NW 4.6 mph - N/A   Mostly Cloudy
5:20 PM 66.2 °F 62.6 °F 88% 30.09 in 6.2 mi North 6.9 mph - N/A   Mostly Cloudy
5:50 PM 66.2 °F 60.8 °F 83% 30.09 in 6.2 mi Variable 4.6 mph - N/A   Mostly Cloudy
6:20 PM 66.2 °F 62.6 °F 88% 30.12 in 6.2 mi Variable 4.6 mph - N/A   Mostly Cloudy
6:50 PM 64.4 °F 60.8 °F 88% 30.12 in 6.2 mi NNE 3.5 mph - N/A   Mostly Cloudy
7:20 PM 64.4 °F 60.8 °F 88% 30.12 in 6.2 mi Variable 3.5 mph - N/A   Mostly Cloudy
7:50 PM 64.4 °F 60.8 °F 88% 30.12 in 6.2 mi NNW 3.5 mph - N/A   Mostly Cloudy
8:20 PM 64.4 °F 60.8 °F 88% 30.12 in 6.2 mi North 3.5 mph - N/A   Mostly Cloudy
9:20 PM 64.4 °F 60.8 °F 88% 30.12 in 6.2 mi Variable 2.3 mph - N/A   Mostly Cloudy
9:50 PM 64.4 °F 60.8 °F 88% 30.12 in 6.2 mi Variable 2.3 mph - N/A   Mostly Cloudy
10:20 PM 64.4 °F 60.8 °F 88% 30.09 in 6.2 mi NNE 2.3 mph - N/A   Mostly Cloudy
10:50 PM 64.4 °F 60.8 °F 88% 30.09 in 6.2 mi NNE 3.5 mph - N/A   Mostly Cloudy
11:20 PM 64.4 °F 60.8 °F 88% 30.09 in 5.0 mi NNE 2.3 mph - N/A   Scattered Clouds
11:50 PM - - N/A% - 5.0 mi NNE 4.6 mph - N/A   Partly Cloudy